Robert Hartmann

Scout - Hamburger SV
3 Apr 2027
Samstag
Verarbeitung

Persönlichkeit

Anpassungsfähigkeit (8) Ehrgeiz (17) Kontroverse (10) Loyalität (17) Druck (13) Professionalität (11) Fairness (4) Temperament (6)

Profil

Trainerstil Demokratisch
Lizenz Nationale B
Entschlossenheit 9
Menschenführung 14
Motivation 9
Disziplin 14
Arbeitszufriedenheit
50%
Ermüdung
0%
Rolle Scout
Gehalt 108.5K p/W
Vertrag 14.03.2029

Leistung

Verhalten Normal
Trainingseffektivität
23%
Spielerentwicklung
65%
Verletzungsprävention
35%
Taktische Umsetzung
55%

Letzte Ereignisse

Spieler begutachtet jetzt
Nahm an einer Scouting-Besprechung teil jetzt
Spieler begutachtet jetzt
Spieler begutachtet 7T her
Spieler begutachtet 7T her
Spieler begutachtet 7T her
Spieler begutachtet 7T her
Spieler begutachtet 7T her

Aktuell beobachtet

140
Spieler Verein Status Fähigkeit Vertrauen Beobachtet Zuletzt beobachtet Letzte Stimme
Oli McBurnie Hull City Aktiv 132 / 139 40% 1 02.04.2027 -
Juninho Utrecht Aktiv 138 / 121 40% 1 02.04.2027 -
Ozziel Herrera Tigres Aktiv 134 / 133 40% 5 31.03.2027 -
Luca Orellano Monterrey Aktiv 147 / 116 40% 6 31.03.2027 -
Álex Forés Burgos Aktiv 138 / 120 40% 1 30.03.2027 -
José Arnáiz Granada Aktiv 134 / 122 40% 1 30.03.2027 -
Moussa Dembélé Al-Ettifaq Aktiv 135 / 138 40% 1 29.03.2027 -
Habib Diallo FC Metz Aktiv 137 / 119 40% 1 29.03.2027 -
Ousmane Camara Castellón Aktiv 120 / 128 40% 5 28.03.2027 -
Adrian Benedyczak Kasimpasa Aktiv 142 / 123 40% 4 28.03.2027 -
Thomas Kastanaras FC Augsburg Aktiv 107 / 100 40% 1 28.03.2027 -
García Pascual Cádiz Aktiv 123 / 122 40% 2 27.03.2027 -
Yorbe Vertessen Red Bull Salzburg Aktiv 125 / 134 40% 2 27.03.2027 -
Luka Kulenović Heracles Aktiv 122 / 104 40% 2 26.03.2027 -
Tamerlan Musaev CSKA Moscow Aktiv 111 / 120 40% 1 26.03.2027 -
Gustavo Silva Vitoria Guimaraes Aktiv 131 / 123 40% 1 25.03.2027 -
Marezi Portsmouth Aktiv 115 / 122 40% 2 24.03.2027 -
Cristian Shpendi Cesena Aktiv 127 / 135 40% 1 24.03.2027 -
Lucas Agazzi Defensor Sporting Aktiv 124 / 140 40% 3 22.03.2027 -
Felipe Augusto Zenit Aktiv 131 / 136 40% 3 22.03.2027 -
Rumarn Burrell Queens Park Rangers Aktiv 124 / 134 40% 1 22.03.2027 -
Elijah Dijkstra Feyenoord Aktiv 132 / 127 40% 1 22.03.2027 -
Johannes Eggestein Austria Wien Aktiv 120 / 124 40% 1 20.03.2027 -
Wesley Saïd RC Lens Aktiv 130 / 145 40% 1 20.03.2027 -
Diego Aznar Huesca Aktiv 97 / 103 40% 2 19.03.2027 -
Paul Onuachu Trabzonspor Aktiv 124 / 143 40% 1 19.03.2027 -
Carlos Fernández Oviedo Aktiv 123 / 118 40% 1 19.03.2027 -
Juanmi Latasa Valladolid Aktiv 129 / 117 40% 3 18.03.2027 -
Johnson Amuzu Berekum Chelsea Aktiv 76 / 77 40% 1 18.03.2027 -
Sheraldo Becker Mainz 05 Aktiv 119 / 143 40% 1 17.03.2027 -
Munir Albacete Aktiv 132 / 121 40% 1 17.03.2027 -
Gorka Gorosabel Real Sociedad Aktiv 102 / 122 40% 1 15.03.2027 -
Nikolaus Wurmbrand Brighton Aktiv 129 / 126 40% 1 15.03.2027 -
Vinícius Lopes Santa Clara Aktiv 127 / 112 40% 3 14.03.2027 -
Freddie Draper Lincoln City Aktiv 108 / 125 40% 1 14.03.2027 -
Jackson Muleka Konyaspor Aktiv 124 / 120 40% 1 13.03.2027 -
Tamble Monteiro Rio Ave Aktiv 127 / 122 40% 1 12.03.2027 -
Dylan Vente Heerenveen Aktiv 110 / 107 40% 1 12.03.2027 -
Sergio Quintero La Equidad Aktiv 142 / 147 40% 3 11.03.2027 -
Martim Cunha Porto Aktiv 93 / 110 40% 1 11.03.2027 -
Morgan Whittaker Middlesbrough Aktiv 141 / 120 40% 1 10.03.2027 -
Ignacio Perruzzi San Lorenzo Aktiv 114 / 136 40% 1 10.03.2027 -
Nacer Tielemans Mouscron Aktiv 136 / 142 40% 2 08.03.2027 -
Khalis Merah LOSC Lille Aktiv 117 / 129 40% 1 08.03.2027 -
Demián Troya Lanús Aktiv 96 / 111 40% 1 07.03.2027 -
Veljko Radosavljević Cukaricki Aktiv 99 / 111 40% 1 06.03.2027 -
Chris Rigg Sunderland Aktiv 127 / 146 40% 1 06.03.2027 -
Josias Lukembila Sion Aktiv 126 / 129 40% 1 04.03.2027 -
Sabil Hansen Randers Aktiv 107 / 112 40% 1 04.03.2027 -
Lassina Traoré Shakhtar Aktiv 113 / 112 40% 1 02.03.2027 -
Bertuğ Yıldırım Basaksehir Aktiv 111 / 139 40% 1 01.03.2027 -
Efraín Álvarez Guadalajara Aktiv 129 / 117 40% 6 28.02.2027 -
Enis Destan Konyaspor Aktiv 120 / 121 40% 1 24.02.2027 -
Pavel Meleshin Sochi Aktiv 119 / 117 40% 2 22.02.2027 -
Abdoulie Ceesay St. Pauli Aktiv 109 / 106 40% 1 22.02.2027 -
Jalen Blesa Rio Ave Aktiv 111 / 126 40% 2 20.02.2027 -
Matheus Nascimento Le Havre AC Aktiv 125 / 130 40% 1 20.02.2027 -
Philippe Keny Zurich Aktiv 116 / 118 40% 2 09.02.2027 -
Andrin Hunziker St. Gallen Aktiv 102 / 106 40% 1 09.02.2027 -
Cristian Montero Veracruz Aktiv 124 / 148 40% 1 30.01.2027 -
Axel Openda KV Oostende Aktiv 136 / 123 40% 1 30.01.2027 -
Florián Monzón Atlas Aktiv 113 / 141 40% 1 18.01.2027 -
Christian Vega Veracruz Verloren 139 / 145 40% 1 13.01.2027 -
Sandro Las Palmas Aktiv 132 / 134 40% 1 13.01.2027 -
Yegor Golenkov Rostov Aktiv 119 / 124 40% 1 13.01.2027 -
Mads Pedersen FC Augsburg Verloren 113 / 120 58% 1 11.01.2027 -
Helinho Toluca Aktiv 121 / 111 40% 1 11.01.2027 -
Lukas Klostermann RB Leipzig Aktiv 149 / 133 40% 1 11.01.2027 -
Matteo di Giusto Luzern Aktiv 122 / 121 40% 6 01.01.2027 -
Chris Brady Chicago Fire Aktiv 128 / 135 40% 5 30.12.2026 -
Ottó Hindrich Legia Aktiv 119 / 113 40% 3 30.12.2026 -
Jonas Urbig Bayern Munich Aktiv 146 / 137 40% 3 27.12.2026 -
Maurits Kjærgaard Red Bull Salzburg Aktiv 138 / 131 40% 4 23.12.2026 -
Vladimir Nazarov Pakhtakor Aktiv 126 / 124 40% 2 22.12.2026 -
Elis Bishesari IFK Goteborg Aktiv 112 / 108 40% 4 22.12.2026 -
Jakub Surovčík Sparta Prague Aktiv 122 / 115 40% 4 21.12.2026 -
Pierce Charles Manchester City Aktiv 130 / 116 40% 3 21.12.2026 -
Mio Backhaus SC Freiburg Aktiv 124 / 145 40% 4 18.12.2026 -
Bernardo Fontes Braga Aktiv 133 / 131 40% 5 18.12.2026 -
Sinan Karweina Luzern Aktiv 118 / 107 40% 2 16.12.2026 -
Santino Barbi Talleres Aktiv 117 / 130 40% 5 12.12.2026 -
Josias Lukembila Sion Verloren 121 / 112 40% 3 12.12.2026 -
Andreas Jungdal Westerlo Aktiv 127 / 132 40% 3 09.12.2026 -
Frank Feller Heidenheim Aktiv 104 / 108 40% 1 08.12.2026 -
Antonio Gomis Vizela Aktiv 114 / 111 40% 1 08.12.2026 -
Petter Nosa Dahl Rapid Wien Aktiv 120 / 122 40% 2 06.12.2026 -
Nahuel Galardi Maipú Aktiv 99 / 122 40% 1 06.12.2026 -
Rafiu Durosinmi Racing Genk Aktiv 137 / 127 40% 1 06.12.2026 -
Pablo Campos Levante Aktiv 122 / 120 40% 2 02.12.2026 -
Lucas Cañizares Tondela Aktiv 113 / 117 40% 1 01.12.2026 -
Mamour N'Diaye Sarpsborg 08 Aktiv 121 / 111 40% 2 23.11.2026 -
Ruslan Neshcheret Dynamo Kyiv Aktiv 119 / 111 40% 3 17.11.2026 -
Radek Vítek Middlesbrough Aktiv 132 / 134 40% 3 17.11.2026 -
Juan Diego Castillo Vitoria Guimaraes Aktiv 113 / 114 40% 1 15.11.2026 -
Pascal Loretz Luzern Aktiv 121 / 134 40% 3 14.11.2026 -
Edoardo Motta Lazio Aktiv 130 / 115 40% 1 10.11.2026 -
Dejan Djokic Vaduz Aktiv 102 / 103 40% 2 09.11.2026 -
Cesar Corona Veracruz Aktiv 143 / 149 40% 1 07.11.2026 -
Rilind Nivokazi Sion Aktiv 113 / 113 40% 1 07.11.2026 -
Marvin Keller Young Boys Aktiv 149 / 126 40% 1 06.11.2026 -
Exequiel Zeballos Boca Juniors Aktiv 128 / 137 40% 1 02.11.2026 -
Matthieu Epolo Standard Liege Aktiv 120 / 114 40% 2 01.11.2026 -
Heorhii Yermakov Metalist Aktiv 125 / 112 40% 4 31.10.2026 -
Ilyas Chouaref Sion Aktiv 129 / 112 40% 2 30.10.2026 -
Fiete Arp OB Aktiv 135 / 128 40% 1 29.10.2026 -
Svetoslav Vutsov Levski Aktiv 119 / 129 40% 2 28.10.2026 -
Lorenzo Palmisani Frosinone Aktiv 134 / 132 40% 1 28.10.2026 -
Jefry Zapata Once Caldas Aktiv 124 / 112 40% 1 23.10.2026 -
Kaio Jorge Cruzeiro Aktiv 134 / 130 40% 1 23.10.2026 -
Rome-Jayden Owusu-Oduro AZ Aktiv 125 / 137 40% 2 22.10.2026 -
Brayan Gil Baltika Aktiv 125 / 129 40% 1 19.10.2026 -
Ignacio Russo Tigre Aktiv 135 / 133 40% 2 17.10.2026 -
Alan Velasco Boca Juniors Aktiv 120 / 128 40% 2 17.10.2026 -
Yoshan Valois Lanús Aktiv 118 / 122 40% 1 15.10.2026 -
Guillaume Restes Toulouse FC Aktiv 135 / 127 40% 2 14.10.2026 -
Beau Reus Waasland-Beveren Aktiv 112 / 133 40% 2 12.10.2026 -
Leonardo Campana New England Revolution Aktiv 125 / 138 40% 2 08.10.2026 -
Manfred Ugalde Spartak Moscow Aktiv 127 / 143 40% 1 07.10.2026 -
Assad Al Hamlawi Universitatea Craiova Aktiv 111 / 117 40% 1 27.09.2026 -
Tadeo Allende Inter Miami CF Aktiv 139 / 138 40% 1 27.09.2026 -
Jonathan Fischer FC Metz Aktiv 126 / 132 40% 1 23.09.2026 -
Daniil Khudyakov Sturm Graz Aktiv 115 / 110 40% 1 22.09.2026 -
Wessam Abou Ali Columbus Crew Aktiv 140 / 110 40% 1 20.09.2026 -
Răzvan Sava Universitatea Craiova Aktiv 114 / 121 40% 1 14.09.2026 -
Jon Karrikaburu Burgos Aktiv 138 / 135 40% 1 12.09.2026 -
Sławomir Abramowicz Jagiellonia Aktiv 108 / 127 40% 1 08.09.2026 -
Sam Tickle Wigan Athletic Aktiv 124 / 110 40% 2 04.09.2026 -
Luca Weinhandl Sturm Graz Aktiv 82 / 101 40% 1 03.09.2026 -
Lucas Lavagnino Valladolid Aktiv 113 / 119 40% 1 02.09.2026 -
Sebastian Hernandez Cortulua Aktiv 115 / 124 40% 1 02.09.2026 -
Robin Risser RC Lens Aktiv 134 / 125 40% 1 30.08.2026 -
Elías Báez Atlanta United FC Aktiv 112 / 131 40% 1 24.08.2026 -
John Mellberg Red Bull Salzburg Aktiv 100 / 108 40% 1 17.08.2026 -
Sem Westerveld Zaragoza Aktiv 106 / 112 40% 1 10.08.2026 -
Diego Romero Universitario Aktiv 111 / 129 40% 1 10.08.2026 -
Sven Ulreich Bayern Munich Aktiv 110 / 112 58% 1 03.08.2026 -
Júnior Firpo Betis Aktiv 144 / 124 40% 1 03.08.2026 -
Thiago Almada River Plate Aktiv 144 / 158 40% 1 03.08.2026 -
Samuel Marques Grasshopper Aktiv 109 / 122 40% 1 03.08.2026 -
Eliás Montiel Pachuca Aktiv 142 / 137 40% 1 03.08.2026 -